Location: Arpaise
(41.0333°N, 14.7333°E)
Time: 07:58:34
(UTC+00:00)

Cosmos 1818 - Pass Details

Date: 05 July 2020
Orbit: 777 x 796 km, 65.0° (Epoch: 05 August)

Event Time Altitude Azimuth Distance (km) Brightness Sun altitude
Rises 19:02:57 0° 193° (SSW) 3,259 6.5 -5.0°
Reaches altitude 10° 19:05:26 10° 187° (S) 2,338 5.7 -5.4°
Maximum altitude 19:10:32 45° 115° (ESE) 1,063 3.9 -6.1°
Drops below altitude 10° 19:15:41 10° 44° (NE) 2,364 6.0 -6.9°
Sets 19:18:12 0° 38° (NE) 3,300 6.8 -7.3°
